STARLINK-31658, 59513

Orbit data source: Space-Track

STARLINK-31658, 59513 is a payload satellite owned by SpaceX/Seattle (US) in LEO that was launched on Wed, 17 Apr 2024 UTC via an FALCON 9 launch vehicle from the Air Force Eastern Test Range (AFETR). Payload-class satellites include a variety of spacecraft equipped with specific instruments for various scientific and technological missions. These include communications satellites like Starlink; space stations such as the ISS; scientific satellites like the Hubble; Earth observation satellites from companies like Planet Labs, Umbra, and HawkEye 360; GPS; miniature CubeSats for education and research; and military/defense satellites.

Loading next visibility...
Identifier
59513, 2024-073C
Orbit
LEO
Country
Flag of USUS
Related business
Manufacturer
SpaceX/Seattle
Mission
Operational spacecraft
Bus & Motor
STARLINK V2M, Unknown motor
Mass
730 kg wet, ~700 kg dry
Launch date (UTC)
2024-04-17 (1 year ago)
Launch vehicle
FALCON 9
Launch site
Air Force Eastern Test Range (AFETR)
Object type
Payload
Rocket body
Debris
Shape & HBR
Unknown
Radar Cross Section
Large (>1 m²)

Expand to show TLE details & history
Last TLE update: 21 hours ago

TLE from 21 hours ago
0 STARLINK-31658
1 59513U 24073C   25260.04570130 -.00002693  00000-0 -88422-4 0  9994
2 59513  43.0012 178.3937 0001041 247.2904 112.7837 15.27558526 80077
Epoch: 2025-09-17T01:05Z
TLE epoch observation values (Epoch: 2025-09-17T01:05:48.592Z)
Latitude
-0.00006°
Longitude
165.71389°
Altitude
483.166 km
Speed
7.625 km/s
True Right ascension
11h 53m 34s
True Declination
0° 00' 00"
Sunlit
Object was in daylight at epoch
Visualization orbit readout
Latitude
Unknown
Longitude
Unknown
Altitude
Unknown
Speed
Unknown
Apparent Right ascension
Unknown
Apparent Declination
Unknown
Sunlit
N/A
Visualization observer readout
Local Sidereal Time
14:33:51
Azimuth
Unknown
Elevation
Unknown
Doppler factor
Unknown
Orbital elements
Apogee altitude
485.773 km
Perigee altitude
484.344 km
Semi-major axis
6,863.195 km
Eccentricity
0.0001
Inclination
43.0012°
RAAN
178.3937°
Arg. of periapsis
247.2904°
True anomaly
112.7947°
Mean anomaly
112.7837°
Eccentric anomaly
112.7892°
Mean motion
3.81728 °/min
Orbital period
94.31 mins
BSTAR
-0.000088422
Loading maneuver chart data...
Computing Atmospheric mass density...
Loading historical data...
Loading historical data...
Loading historical data...
Loading historical data...
Loading historical data...
Loading historical data...
Loading historical data...

Documentation

Showing up to 5 results
|